TimeGMT,TemperatureF,Dew PointF,Humidity,Sea Level PressureIn,VisibilityMPH,Wind Direction,Wind SpeedMPH,Gust SpeedMPH,PrecipitationIn,Events,Conditions,WindDirDegrees,DateUTC
12:00 AM,46,45,94,30.18,12,South,8.9,,,,Partly Cloudy,180,2013-12-08 00:00:00
12:00 AM,46.4,44.6,93,30.18,6.2,South,8.1,-,N/A,,Mostly Cloudy,180,2013-12-08 00:00:00
12:30 AM,46.4,44.6,93,30.15,6.2,South,8.1,-,N/A,,Mostly Cloudy,170,2013-12-08 00:30:00
1:00 AM,46.4,44.6,93,30.15,6.2,SSE,8.1,-,N/A,,Mostly Cloudy,150,2013-12-08 01:00:00
1:30 AM,48.2,46.4,93,30.15,6.2,SSW,8.1,-,N/A,Rain,Light Rain,200,2013-12-08 01:30:00
2:00 AM,48.2,46.4,93,30.15,6.2,SSW,11.5,-,N/A,,Mostly Cloudy,210,2013-12-08 02:00:00
2:30 AM,50.0,46.4,87,30.15,6.2,SSW,10.4,-,N/A,,Mostly Cloudy,200,2013-12-08 02:30:00
3:00 AM,50.0,46.4,87,30.15,6.2,South,10.4,-,N/A,,Mostly Cloudy,190,2013-12-08 03:00:00
3:30 AM,50.0,46.4,87,30.15,6.2,SSW,11.5,-,N/A,,Mostly Cloudy,200,2013-12-08 03:30:00
4:00 AM,50.0,46.4,87,30.15,6.2,SSW,12.7,-,N/A,,Mostly Cloudy,210,2013-12-08 04:00:00
4:30 AM,50.0,46.4,87,30.15,6.2,SSW,13.8,-,N/A,,Mostly Cloudy,200,2013-12-08 04:30:00
5:00 AM,50.0,46.4,87,30.12,6.2,SSW,10.4,-,N/A,,Scattered Clouds,200,2013-12-08 05:00:00
5:30 AM,50.0,46.4,87,30.15,6.2,SSW,11.5,-,N/A,,Scattered Clouds,210,2013-12-08 05:30:00
6:00 AM,49,47,89,30.15,12,SSW,13.4,,,,Partly Cloudy,200,2013-12-08 06:00:00
6:00 AM,50.0,46.4,87,30.12,6.2,SSW,12.7,-,N/A,,Scattered Clouds,200,2013-12-08 06:00:00
6:30 AM,50.0,46.4,87,30.15,6.2,South,9.2,-,N/A,,Scattered Clouds,190,2013-12-08 06:30:00
7:00 AM,50.0,46.4,87,30.15,6.2,South,9.2,-,N/A,,Scattered Clouds,180,2013-12-08 07:00:00
7:30 AM,50.0,46.4,87,30.15,6.2,SSW,10.4,-,N/A,,Mostly Cloudy,200,2013-12-08 07:30:00
8:00 AM,50.0,46.4,87,30.15,6.2,SSW,9.2,-,N/A,,Mostly Cloudy,200,2013-12-08 08:00:00
8:30 AM,50.0,46.4,87,30.12,6.2,SSW,11.5,-,N/A,,Mostly Cloudy,210,2013-12-08 08:30:00
9:00 AM,50.0,46.4,87,30.15,6.2,SSW,10.4,-,N/A,,Mostly Cloudy,200,2013-12-08 09:00:00
9:30 AM,51.8,48.2,88,30.15,6.2,SSW,10.4,-,N/A,,Mostly Cloudy,200,2013-12-08 09:30:00
10:00 AM,51.8,48.2,88,30.15,6.2,SSW,10.4,-,N/A,,Mostly Cloudy,200,2013-12-08 10:00:00
10:30 AM,51.8,48.2,88,30.15,6.2,SSW,12.7,-,N/A,,Mostly Cloudy,210,2013-12-08 10:30:00
11:00 AM,51.8,48.2,88,30.15,6.2,SSW,15.0,-,N/A,,Mostly Cloudy,210,2013-12-08 11:00:00
11:30 AM,53.6,48.2,82,30.15,6.2,SSW,15.0,-,N/A,,Mostly Cloudy,210,2013-12-08 11:30:00
12:00 PM,53,49,80,30.15,19,SSW,15.7,,,,Scattered Clouds,210,2013-12-08 12:00:00
12:00 PM,53.6,48.2,82,30.15,6.2,SSW,16.1,-,N/A,,Mostly Cloudy,210,2013-12-08 12:00:00
12:30 PM,53.6,48.2,82,30.15,6.2,SW,16.1,-,N/A,,Mostly Cloudy,220,2013-12-08 12:30:00
1:00 PM,53.6,48.2,82,30.15,6.2,SW,12.7,-,N/A,,Mostly Cloudy,220,2013-12-08 13:00:00
1:30 PM,53.6,48.2,82,30.12,6.2,SW,18.4,-,N/A,,Mostly Cloudy,220,2013-12-08 13:30:00
2:00 PM,53.6,48.2,82,30.12,6.2,SW,15.0,-,N/A,,Mostly Cloudy,220,2013-12-08 14:00:00
2:30 PM,53.6,48.2,82,30.12,6.2,SSW,15.0,-,N/A,,Mostly Cloudy,210,2013-12-08 14:30:00
3:00 PM,53.6,48.2,82,30.12,6.2,SSW,15.0,-,N/A,,Mostly Cloudy,210,2013-12-08 15:00:00
3:30 PM,53.6,48.2,82,30.12,6.2,SW,15.0,-,N/A,,Mostly Cloudy,220,2013-12-08 15:30:00
4:00 PM,53.6,48.2,82,30.15,6.2,SW,13.8,-,N/A,,Mostly Cloudy,220,2013-12-08 16:00:00
4:30 PM,53.6,48.2,82,30.15,6.2,SSW,11.5,-,N/A,,Mostly Cloudy,210,2013-12-08 16:30:00
5:00 PM,53.6,48.2,82,30.15,6.2,SW,15.0,-,N/A,,Mostly Cloudy,220,2013-12-08 17:00:00
5:30 PM,53.6,48.2,82,30.15,6.2,SW,13.8,-,N/A,,Mostly Cloudy,220,2013-12-08 17:30:00
6:00 PM,53,49,80,30.18,12,SW,11.2,,,,Mostly Cloudy,220,2013-12-08 18:00:00
6:00 PM,53.6,48.2,82,30.15,6.2,SW,11.5,-,N/A,,Mostly Cloudy,220,2013-12-08 18:00:00
6:30 PM,53.6,48.2,82,30.15,6.2,SW,10.4,-,N/A,,Mostly Cloudy,220,2013-12-08 18:30:00
7:00 PM,53.6,48.2,82,30.18,6.2,SW,10.4,-,N/A,,Mostly Cloudy,220,2013-12-08 19:00:00
7:30 PM,53.6,48.2,82,30.18,6.2,SSW,10.4,-,N/A,,Mostly Cloudy,210,2013-12-08 19:30:00
8:00 PM,51.8,48.2,88,30.18,6.2,SSW,10.4,-,N/A,,Mostly Cloudy,200,2013-12-08 20:00:00
8:30 PM,51.8,48.2,88,30.18,6.2,SSW,11.5,-,N/A,,Mostly Cloudy,210,2013-12-08 20:30:00
9:00 PM,51.8,48.2,88,30.18,6.2,South,10.4,-,N/A,,Mostly Cloudy,190,2013-12-08 21:00:00
9:30 PM,51.8,48.2,88,30.18,6.2,SSW,10.4,-,N/A,,Mostly Cloudy,200,2013-12-08 21:30:00
10:00 PM,50.0,48.2,94,30.18,6.2,South,9.2,-,N/A,,Mostly Cloudy,180,2013-12-08 22:00:00
10:30 PM,50.0,48.2,94,30.18,6.2,SSW,8.1,-,N/A,,Mostly Cloudy,200,2013-12-08 22:30:00
11:00 PM,50.0,46.4,87,30.18,6.2,South,8.1,-,N/A,,Scattered Clouds,170,2013-12-08 23:00:00
11:30 PM,50.0,46.4,87,30.18,6.2,SSW,9.2,-,N/A,,Partly Cloudy,200,2013-12-08 23:30:00